Location: Coat-er-huiler
(47.9637°N, 3.5719°W)
Time: 04:15:42
(UTC+00:00)

Daily predictions for brighter satellites

Satellite Brightness Start Highest point End
(mag) Time Altitude Azimuth Time Altitude Azimuth Time Altitude Azimuth
CZ-4C R/B 4.4 03:07:22 22° NE 03:07:22 22° NE 03:09:28 10° NE
USA 234 4.3 03:24:56 10° ENE 03:29:34 38° NNE 03:29:34 38° NNE
Cosmos 1833 Rocket 3.8 04:01:13 35° SE 04:02:30 40° ESE 04:07:42 10° NE
Cosmos 1980 Rocket 3.1 04:16:57 31° N 04:19:13 46° NE 04:24:41 10° SE
SL-4 R/B 3.3 04:23:08 45° NE 04:23:08 45° NE 04:26:43 10° ENE
IDEFIX/ARIANE 42P 3.8 04:20:15 10° N 04:22:55 31° N 04:22:55 31° N
Cosmos 2369 3.5 04:34:19 82° WSW 04:34:19 82° WSW 04:40:01 10° SSE
ATLAS 5 CENTAUR R/B 4.4 04:31:24 42° WNW 04:35:12 75° SW 05:10:43 10° SSE
MSX 3.7 04:29:37 10° NNE 04:35:25 89° WNW 04:37:19 45° SSW
Meteor 1-27 4.4 04:30:51 10° N 04:36:44 77° ENE 04:42:35 10° SSE
Meteor 1-31 Rocket 3.8 04:33:35 10° NNE 04:37:16 43° E 04:37:44 41° ESE
H-2A R/B 3.0 04:35:28 10° NNE 04:39:11 59° NNE 04:39:11 59° NNE
ATLAS 2AS CENTAUR R/B 4.0 04:36:54 20° NNW 04:41:52 39° NNE 04:48:40 10° E
Cosmos 2360 4.2 04:42:08 39° NNW 04:44:23 80° ENE 04:50:08 10° SSE
ISS -0.9 04:48:32 12° SSE 04:48:32 12° SSE 04:48:50 10° SSE
Cosmos 1934 Rocket 3.9 04:40:18 10° SSW 04:46:36 78° W 04:53:00 10° N
CZ-2C R/B 2.4 04:42:00 10° NNE 04:47:00 77° ESE 04:51:14 13° S
ASTEX 1 3.7 04:42:20 10° SSE 04:47:14 67° E 04:52:11 10° N
Lacrosse 5 2.6 04:47:01 32° S 04:48:57 48° SE 04:53:51 10° ENE
CZ-4C R/B 3.2 04:52:34 32° NNW 04:52:34 32° NNW 04:58:18 10° NE
Cosmos 2278 3.6 04:53:17 45° NW 04:55:06 77° WSW 05:00:48 10° SSE
Cosmos 1697 Rocket 2.7 04:59:43 53° W 05:00:19 56° WSW 05:05:47 10° S
Cosmos 2084 Rocket 3.5 05:00:15 61° SSW 05:01:01 83° SE 05:05:29 10° NE
BREEZE-M DEB (TANK) 2.7 05:05:14 65° S 05:05:14 65° S 05:07:50 10° ESE
COSMOS 2406 3.6 05:05:16 41° NW 05:05:21 41° NW 05:10:50 10° NNE
CZ-4B R/B 4.0 05:02:11 10° NNE 05:06:40 88° WNW 05:11:10 10° SSW
Meteor 1-11 4.2 05:02:56 12° SSW 05:08:15 62° WNW 05:14:01 10° N
PAYLOAD A 4.1 05:05:01 10° N 05:10:11 58° WNW 05:14:27 16° SW
STARLINK-52 3.4 05:10:27 62° S 05:10:39 64° SSE 05:14:09 10° ENE
Cosmos 2123 Rocket 4.1 05:06:01 10° NNW 05:11:52 46° W 05:17:44 10° SSW
Cosmos 2112 Rocket 3.9 05:08:56 19° NNW 05:12:47 88° WSW 05:18:07 10° SSE
PSLV R/B 4.3 05:09:19 10° NNE 05:13:05 59° ESE 05:16:56 10° S
USA 234 4.0 05:07:11 10° E 05:13:17 44° N 05:16:55 23° NW
ADEOS 4.3 05:09:19 10° N 05:13:07 33° NW 05:13:07 33° NW
APEX 4.4 05:15:58 24° S 05:15:58 24° S 05:17:42 10° S
Cosmos 1777 Rocket 4.4 05:14:35 39° WNW 05:14:35 39° WNW 05:19:25 10° N
Cosmos 1076 Rocket 3.4 05:15:26 10° S 05:19:48 86° W 05:24:10 10° N
Cosmos 1680 Rocket 3.4 05:17:35 23° NNW 05:20:57 67° WSW 05:26:12 10° S
Cosmos 2082 Rocket 2.1 05:17:07 10° SSW 05:22:49 77° WNW 05:28:35 10° NNE
STARLINK-29 3.1 05:24:47 58° WSW 05:25:24 87° SSE 05:28:54 10° ENE
BREEZE-M DEB (TANK) 3.0 05:26:59 38° SSW 05:27:05 38° SSW 05:30:57 10° SE
Cosmos 1605 Rocket 4.0 05:22:02 10° SSW 05:28:09 58° WNW 05:34:14 10° N
COBE Rocket 4.0 05:23:43 10° S 05:28:50 60° W 05:33:53 10° NNW
Cosmos 2058 2.9 05:25:08 10° S 05:29:21 89° W 05:33:35 10° N
Cosmos 2221 3.3 05:31:28 31° WSW 05:31:28 31° WSW 05:34:36 10° SSW
Meteor 2-20 4.4 05:26:17 10° NNW 05:32:26 73° W 05:38:33 10° S
Lacrosse 5 rocket 2.8 05:31:59 19° NNW 05:32:35 19° N 05:35:17 10° NE
CZ-4B R/B 2.9 05:32:46 10° N 05:36:11 41° WNW 05:36:48 37° W
SL-27 R/B 2.5 05:33:37 10° SSW 05:36:55 69° ESE 05:40:13 10° NNE
Cosmos 1766 Rocket 4.5 05:33:06 10° S 05:37:17 50° E 05:41:30 10° NNE
STARLINK-67 3.9 05:38:13 26° N 05:38:21 26° N 05:40:41 10° ENE
deb Kosmos-1763 4.2 05:35:07 10° SSW 05:38:48 77° ESE 05:42:32 10° NNE
Cosmos 1461 4.1 05:39:51 22° NW 05:39:51 22° NW 05:42:58 10° NNE
STARLINK-60 3.1 05:39:29 42° W 05:40:22 61° NNW 05:43:43 10° ENE
COSMO-SKYMED 1 2.5 05:38:19 10° S 05:42:37 60° W 05:46:56 10° NNW
Cosmos 1356 Rocket 3.7 05:40:36 11° NNW 05:44:37 47° W 05:48:44 10° S
FALCON 9 DEB 3.1 05:43:50 35° W 05:45:06 67° NNW 05:48:33 10° ENE
Cosmos 1833 Rocket 3.1 05:43:01 20° WSW 05:46:27 39° NW 05:51:42 10° NNE
Cosmos 158 Rocket 3.8 05:41:59 10° NNW 05:46:59 69° WSW 05:51:50 10° SSE
SJ-12 3.9 05:42:52 10° NNE 05:47:02 85° WNW 05:51:11 10° SSW
Cosmos 990 Rocket 4.0 05:42:43 10° SSW 05:47:53 89° ESE 05:53:08 10° NNE
ALOS 2.4 05:46:32 10° NNE 05:51:14 81° ESE 05:55:54 10° SSW
SL-16 R/B 2.4 05:47:19 10° NNW 05:53:01 73° ENE 05:58:41 10° SE
NOSS 3-4 (A) 4.3 05:46:19 10° NW 05:53:04 59° NE 06:00:32 10° ESE
NOSS 3-4 (C) 4.3 05:46:25 10° NW 05:53:11 58° NE 06:00:37 10° ESE
SJ 16-02 1.2 05:50:04 10° SSW 05:54:27 82° WNW 05:58:52 10° NNE
Okean O Rocket 1.7 05:52:07 10° NNE 05:56:29 77° ESE 06:00:49 10° S
Cosmos 2360 Rocket 3.5 05:51:57 10° NNW 05:57:17 39° NE 06:02:35 10° ESE
Shenzhou-11 Module 3.4 05:57:19 17° SW 05:58:47 26° S 06:01:09 10° ESE
STARLINK-46 4.0 05:59:16 22° NW 06:00:26 29° N 06:03:06 10° ENE
SL-4 R/B 2.7 05:58:44 19° WNW 06:02:08 61° NNE 06:06:54 10° E
NOSS 3-3 (A) 4.1 05:56:59 10° SW 06:03:01 87° SE 06:09:51 10° NE
Cosmos 1980 Rocket 2.9 05:58:47 14° NW 06:03:05 33° WSW 06:08:07 10° SSW
MOS 1-B 4.3 05:57:21 10° N 06:03:07 65° WNW 06:08:50 10° SSW
NOSS 3-3 (C) 4.0 05:57:12 10° SW 06:03:09 87° SE 06:09:54 10° NE
IDEFIX/ARIANE 42P 4.3 06:01:51 10° NNW 06:03:42 13° NW 06:03:42 13° NW
Cosmos 839 Rocket 4.2 05:57:51 10° SW 06:04:48 56° NW 06:10:56 10° NNE
Cosmos 2322 Rocket 2.4 05:59:19 10° NNW 06:05:00 77° ENE 06:10:40 10° SSE
Cosmos 1898 Rocket 3.5 06:04:52 10° SW 06:10:01 59° WNW 06:15:15 10° NNE
Cosmos 2151 2.9 06:06:15 10° SSW 06:10:32 68° W 06:14:52 10° N
Meteor 1-31 Rocket 4.2 06:08:45 10° NNW 06:11:24 18° WNW 06:13:05 14° W
Gbstr 26 Del rocket 3.0 06:08:07 10° SW 06:11:55 65° SSE 06:15:38 10° ENE
COSMOS 2455 2.8 06:06:44 10° NW 06:12:47 80° WSW 06:18:46 10° SSE
Cosmos 1725 Rocket 4.3 06:08:20 10° S 06:14:33 72° E 06:20:50 10° NNE
H-2A R/B 4.3 06:12:24 10° NNW 06:14:52 15° WNW 06:15:45 14° WNW
STARLINK-43 3.5 06:11:34 10° SW 06:15:17 73° SSE 06:19:01 10° ENE
Cosmos 1459 Rocket 4.0 06:11:39 10° SSW 06:17:44 63° WNW 06:23:59 10° N
Cosmos 1484 Rocket 3.7 06:15:39 10° N 06:19:06 29° WNW 06:22:35 10° SW
Cosmos 2016 Rocket 4.0 06:13:40 10° S 06:19:54 85° W 06:26:17 10° N
USA 267 4.3 06:14:13 10° ENE 06:20:33 49° SE 06:26:51 10° SSW
ATLAS CENTAUR R/B 3.8 06:16:28 10° S 06:20:49 32° ESE 06:25:06 10° NE
Tsikada Rocket 4.2 06:17:48 10° N 06:24:15 85° E 06:30:37 10° S
CZ-2C R/B 3.8 06:21:28 10° NNW 06:24:36 17° WNW 06:27:41 10° W
NOAA 6 4.0 06:20:07 10° N 06:25:14 67° WNW 06:30:17 10° SSW
Cosmos 1937 Rocket 3.5 06:20:30 10° SW 06:25:35 59° WNW 06:30:41 10° NNE
Cosmos 2333 Rocket 4.0 06:22:07 10° NNW 06:27:03 28° NE 06:31:59 10° ESE
PAYLOAD B 4.4 06:25:56 10° N 06:31:13 49° WNW 06:36:28 10° SW
CZ-4B R/B 3.2 06:26:37 10° N 06:31:53 62° WNW 06:37:14 10° SSW
Lacrosse 5 2.2 06:27:03 10° WSW 06:31:59 49° NNW 06:36:56 10° NE
ATLAS 2AS CENTAUR R/B 2.9 06:25:50 10° NW 06:33:34 77° SW 06:40:38 10° SSE
Cosmos 2100 Rocket 4.3 06:28:12 10° SSW 06:34:06 45° WNW 06:40:02 10° N
Cosmos 1606 2.8 06:32:30 10° N 06:36:18 79° ENE 06:40:06 10° SSE
Cosmos 1515 Rocket 3.5 06:33:54 10° NNW 06:38:14 70° W 06:42:32 10° S
Cosmos 1892 3.6 06:35:07 10° SW 06:38:25 28° WNW 06:41:43 10° NNW
Cosmos 1437 2.9 06:38:12 10° S 06:41:13 73° E 06:44:17 10° NNE
Cosmos 1328 Rocket 4.0 06:37:41 10° NNW 06:41:45 40° W 06:45:47 10° SSW
SL-08 R/B 4.5 06:37:01 10° SSW 06:43:07 69° W 06:49:13 10° N
CZ-4C R/B 4.1 06:38:39 10° NW 06:43:10 21° N 06:48:13 10° NE
Cosmos 1743 Rocket 3.6 06:39:28 10° S 06:43:48 85° E 06:48:09 10° N
Cosmos 1802 Rocket 4.3 06:38:43 10° SSW 06:44:56 50° WNW 06:51:11 10° N
FENGYUN 3A 4.1 06:42:25 10° N 06:47:28 40° WNW 06:52:29 10° SW
